Regional Weather Roundup
Issued by NWS

Home | Current Version | Previous Version | Graphics & Text | Print | Product List | Glossary On
Versions: 1 2 3 4 5 6 7 8 9 10 11 12 13 14 15 16 17 18 19 20 21 22 23 24 25 26 27 28 29 30 31 32 33 34 35 36 37 38 39 40 41 42 43 44 45 46 47 48 49 50
000
ASUS43 KMKX 252210
RWRWI

WISCONSIN REGIONAL WEATHER ROUNDUP
NATIONAL WEATHER SERVICE MILWAUKEE/SULLIVAN WI
400 PM CST SUN FEB 25 2018

NOTE: "FAIR" INDICATES FEW OR NO CLOUDS BELOW 12,000 FEET WITH NO
SIGNIFICANT WEATHER AND/OR OBSTRUCTIONS TO VISIBILITY.

WIZ001-002-006>008-014>016-023>028-252300-
NORTHWEST WISCONSIN

CITY           SKY/WX    TMP DP  RH WIND       PRES   REMARKS
SUPERIOR ARPT  PTSUNNY   29  17  60 SW20      29.68R WCI  17
ASHLAND        CLOUDY    28  18  66 SW20G26   29.66R WCI  15
HAYWARD        PTSUNNY   26  17  68 SW17G25   29.71R WCI  13
SIREN          CLOUDY    27  19  69 W15G26    29.76R WCI  16
CUMBERLAND     PTSUNNY   25  18  74 W17G24    29.75R WCI  11
RICE LAKE      FAIR      27  17  68 SW12      29.79R WCI  16
CHETEK         FAIR      28  17  65 W9G20     29.78R WCI  19
LADYSMITH      FAIR      28  17  62 SW18G24   29.76R WCI  15
EAU CLAIRE     FAIR      27  18  69 W16G29    29.81R WCI  15
MENOMONIE      CLOUDY    29  20  69 SW16      29.82R WCI  17
NEW RICHMOND   CLOUDY    27  19  71 W14G21    29.81R WCI  16
OSCEOLA        CLOUDY    28  20  73 SW14      29.84R WCI  17
$$

WIZ003>005-009-010-017-018-252300-
NORTH CENTRAL WISCONSIN

CITY           SKY/WX    TMP DP  RH WIND       PRES   REMARKS
MANITOWISH WTR CLOUDY    23  17  77 W22G28    29.63R WCI   8
ARBOR VITAE    CLOUDY    25  18  75 W13G24    29.64R WCI  14
WOODRUFF       CLOUDY    25  18  75 W13G24    29.64R WCI  14
RHINELANDER    MIX PCPN  26  18  71 SW20G30   29.66R WCI  12
EAGLE RIVER    CLOUDY    24  16  72 W14G25    29.62R WCI  12
LAND O LAKES   CLOUDY    25  18  74 W14G22    29.62R WCI  13
PHILLIPS       FAIR      26  16  65 SW16      29.67R WCI  14
TOMAHAWK       PTSUNNY   27  17  65 SW5       29.69R WCI  22
MEDFORD        FAIR      25  15  67 SW17G25   29.74R WCI  11
MERRILL        FAIR      29  17  61 W21G30    29.73R WCI  15
$$

WIZ029-030-035-036-043>047-252300-
CENTRAL WISCONSIN

CITY           SKY/WX    TMP DP  RH WIND       PRES   REMARKS
WAUSAU         FAIR      29  17  61 W18G25    29.73R WCI  16
MOSINEE        MOSUNNY   28  19  69 SW21G29   29.76R WCI  15
MARSHFIELD     FAIR      29  17  61 W20G29    29.76R WCI  16
STEVENS POINT  FAIR      29  20  69 W10G20    29.78R WCI  20
WAUPACA        FAIR      36  23  59 SW18G31   29.79R WCI  26
WAUTOMA        FAIR      36  23  59 SW15G28   29.81R WCI  27
WISC RAPIDS    FAIR      32  22  66 MISG      29.80R
CAMP DOUGLAS   FAIR      34  24  67 W21       29.83R WCI  22
$$

WIZ011>013-019>022-031-037>040-048>050-252300-
NORTHEAST WISCONSIN

CITY           SKY/WX    TMP DP  RH WIND       PRES   REMARKS
ANTIGO         FAIR      26  17  69 W20G31    29.70R WCI  12
SHAWANO        FAIR      34  22  61 W14G25    29.75R WCI  25
OCONTO         FAIR      33  22  64 W20G29    29.74R WCI  21
STURGEON BAY   FAIR      34  22  61 SW24G31   29.72R WCI  21
GREEN BAY      FAIR      37  22  54 W18G26    29.76R WCI  27
MANITOWOC      FAIR      38  22  52 SW23G30   29.78R WCI  27
APPLETON       MOSUNNY   36  19  51 W16G30    29.76R WCI  26
CLINTONVILLE   PTSUNNY   33  22  65 W16G22    29.77R WCI  22
OSHKOSH        FAIR      38  22  52 SW12G25   29.79R WCI  30
$$

WIZ032>034-041-042-053>061-252300-
SOUTHWEST WISCONSIN

CITY           SKY/WX    TMP DP  RH WIND       PRES   REMARKS
LA CROSSE      FAIR      33  23  66 SW10G21   29.91R WCI  25
SPARTA         FAIR      33  24  68 SW12G17   29.87R WCI  24
VIROQUA        FAIR      32  25  76 W16G26    29.87R WCI  21
BOSCOBEL       FAIR      38  23  55 W16G28    29.94R WCI  29
PRAIRIE DU CHI FAIR      36  22  58 W14G21    29.95R WCI  27
PLATTEVILLE    FAIR      37  29  70 W20G28    29.95R WCI  27
$$

WIZ056-057-062-063-064-067-068-252300-
SOUTH CENTRAL WISCONSIN

CITY           SKY/WX    TMP DP  RH WIND       PRES   REMARKS
REEDSBURG      FAIR      37  23  58 SW15      29.86R WCI  27
BARABOO/DELLS  FAIR      37  23  57 SW14G28   29.85R WCI  28
LONE ROCK      PTSUNNY   38  25  59 SW14G28   29.91R WCI  30
MINERAL POINT  FAIR      37  28  70 SW20G29   29.91R WCI  27
MADISON        FAIR      38  23  55 SW13G23   29.90R WCI  30
MIDDLETON      FAIR      39  25  56 SW17G30   29.89R WCI  30
WATERTOWN      FAIR      38  24  56 SW15G23   29.87R WCI  29
MONROE         FAIR      37  23  56 W28G36    29.92R WCI  25
JANESVILLE     MOSUNNY   39  25  56 W22G29    29.91R WCI  29
$$

WIZ051-052-058>065-066-070>072-252300-
SOUTHEAST WISCONSIN

CITY           SKY/WX    TMP DP  RH WIND       PRES   REMARKS
MILWAUKEE      FAIR      42  22  44 W23G36    29.89R
WAUKESHA       SUNNY     37  19  48 SW17G29   29.89R WCI  28
MILWAUKEE/TIMM SUNNY     39  19  45 SW23G33   29.87R WCI  29
RACINE         FAIR      42  22  44 W25G39    29.91R
BURLINGTON     FAIR      40  26  58 SW18G29   29.92R WCI  31
KENOSHA        FAIR      42  24  49 W29G38    29.91R
FOND DU LAC    FAIR      38  22  52 SW18G29   29.82R WCI  28
SHEBOYGAN      FAIR      38  24  57 SW28G36   29.80R WCI  26
WEST BEND      FAIR      37  23  56 SW16G29   29.83R WCI  28
JUNEAU         FAIR      37  24  59 SW22G29   29.87R WCI  25
$$

LSZ147-162-252300-
LAKE SUPERIOR

STATION/POSITION TIME  TEMP    WIND        PRES    WAVE
                       AIR SEA DIR/SP/G            HT/PER
                 (UTC) (F)     (DEG/KT/KT) (MB)    (FT/S)
DEVILS ISLAND    2200   29     240/ 27/ 33 1003.4R
SAXON HARBOR     2130   29     230/ 12/ 20 1003.4R
$$

LMZ867-665-643>646-252300-
LAKE MICHIGAN

STATION/POSITION TIME  TEMP    WIND        PRES    WAVE
                       AIR SEA DIR/SP/G            HT/PER
                 (UTC) (F)     (DEG/KT/KT) (MB)    (FT/S)
NORTHPORT PIER   2140   32                 1005.8R
KEWAUNEE LAKESHO 2148   38     240/ 14/ 27 1006.7R
SHEBOYGAN LAKESH 2200   38     230/ 24/ 28 1009.6R
PORT WASHINGTON  2140   42     240/ 15/ 28 1011.5R
KENOSHA   LAKESH 2200   43     250/ 19/ 30 1013.5
$$

TC  - TEMPERATURE IN CELSIUS
VSB - VISIBILITY IN STATUTE MILES
WCI - WIND CHILL INDEX
HX  - HEAT INDEX




USA.gov is the U.S. government's official web portal to all federal, state and local government web resources and services.